TimeEDT,TemperatureF,Dew PointF,Humidity,Sea Level PressureIn,VisibilityMPH,Wind Direction,Wind SpeedMPH,Gust SpeedMPH,PrecipitationIn,Events,Conditions,WindDirDegrees,DateUTC
12:53 AM,39.0,34.0,82,30.06,10.0,Calm,Calm,-,N/A,,Clear,0,2013-05-15 04:53:00
1:53 AM,37.0,34.0,89,30.06,10.0,Calm,Calm,-,N/A,,Clear,0,2013-05-15 05:53:00
2:53 AM,37.0,34.0,89,30.06,10.0,SSW,3.5,-,N/A,,Clear,200,2013-05-15 06:53:00
3:53 AM,36.0,34.0,93,30.06,10.0,Calm,Calm,-,N/A,,Clear,0,2013-05-15 07:53:00
4:53 AM,35.1,33.1,92,30.06,10.0,SSW,3.5,-,N/A,,Clear,210,2013-05-15 08:53:00
5:53 AM,36.0,35.1,97,30.06,10.0,Calm,Calm,-,N/A,,Clear,0,2013-05-15 09:53:00
6:53 AM,42.1,41.0,96,30.06,10.0,SSW,5.8,-,N/A,,Clear,200,2013-05-15 10:53:00
7:53 AM,52.0,46.0,80,30.06,10.0,SSW,5.8,-,N/A,,Clear,210,2013-05-15 11:53:00
8:53 AM,57.0,42.1,57,30.05,10.0,South,8.1,-,N/A,,Clear,180,2013-05-15 12:53:00
9:53 AM,60.1,37.9,44,30.03,10.0,South,10.4,18.4,N/A,,Clear,190,2013-05-15 13:53:00
10:53 AM,61.0,37.9,42,30.02,10.0,SW,13.8,20.7,N/A,,Mostly Cloudy,220,2013-05-15 14:53:00
11:53 AM,62.1,41.0,46,30.01,10.0,SSW,15.0,23.0,N/A,,Overcast,210,2013-05-15 15:53:00
12:53 PM,60.1,36.0,41,29.99,10.0,SW,19.6,26.5,N/A,,Mostly Cloudy,220,2013-05-15 16:53:00
1:53 PM,59.0,33.1,38,29.97,10.0,SSW,16.1,23.0,N/A,,Mostly Cloudy,200,2013-05-15 17:53:00
2:53 PM,57.9,44.1,60,29.92,10.0,South,18.4,23.0,N/A,,Mostly Cloudy,170,2013-05-15 18:53:00
3:53 PM,57.9,48.0,70,29.91,10.0,South,13.8,24.2,N/A,,Overcast,190,2013-05-15 19:53:00
4:53 PM,55.0,50.0,83,29.86,8.0,South,16.1,24.2,0.01,Rain,Light Rain,180,2013-05-15 20:53:00
5:53 PM,55.0,50.0,83,29.80,10.0,South,11.5,25.3,0.00,,Overcast,170,2013-05-15 21:53:00
6:36 PM,55.4,48.2,77,29.78,10.0,South,19.6,28.8,N/A,,Overcast,170,2013-05-15 22:36:00
6:53 PM,55.0,48.0,77,29.77,10.0,South,21.9,32.2,0.00,Rain,Light Rain,180,2013-05-15 22:53:00
7:53 PM,55.9,48.9,77,29.77,10.0,South,13.8,23.0,0.00,,Overcast,180,2013-05-15 23:53:00
8:53 PM,57.0,52.0,83,29.74,10.0,South,12.7,25.3,N/A,,Overcast,190,2013-05-16 00:53:00
9:34 PM,57.2,53.6,88,29.73,10.0,South,10.4,20.7,N/A,,Mostly Cloudy,190,2013-05-16 01:34:00
9:53 PM,57.0,53.1,87,29.73,10.0,SSW,9.2,17.3,N/A,,Mostly Cloudy,200,2013-05-16 01:53:00
10:29 PM,55.4,53.6,94,29.71,10.0,SSW,11.5,20.7,N/A,,Scattered Clouds,210,2013-05-16 02:29:00
10:53 PM,55.9,53.1,90,29.70,10.0,SSW,10.4,18.4,N/A,,Scattered Clouds,210,2013-05-16 02:53:00
11:53 PM,55.9,53.1,90,29.70,10.0,SW,5.8,-,N/A,,Clear,230,2013-05-16 03:53:00